Airfield :
LOGIN :

Register | Disclaimer

   EN    FR    IT 

 










Legend :    VFR   Marginal VFR   IFR   Intensive IFR   Very Intensive IFR
Visi :
Ceiling :
>= 8 km
>= 3000ft
5 to 8 km
1000 to 3000 ft
1500m to 5 km
500 to 1000 ft
800 to 1500m
200 to 500 ft
< 800m
< 200 ft
Symbols :   Thunderstorms  Fog  Heavy snow  Heavy precipitations  Wind > 20 kt
SIGMETs :     Misc.  Thunderstorms  Icing  Turbulence  Mountain Waves  Volcanic Ashes







- Airport Elevation : 76 ft
- IATA code : KID


ESMK - Kristianstad

CURRENT METAR :
  • 251150Z VRB02KT 9999 -DZ BKN013 08/05 Q1000

EXPIRED METARs :
  • 251120Z VRB02KT 9999 FEW012 BKN027 08/05 Q1000
  • 251050Z VRB03KT 9999 FEW013 BKN039 07/05 Q1000
  • 251020Z 04003KT 360V070 9999 -DZ FEW038 07/05 Q1000
  • 250950Z VRB02KT 9999 -RA SCT037 07/04 Q1000
  • 250920Z 12002KT 9999 -DZ FEW020 SCT090 06/04 Q1000

TAF TAF ESMK
Valid from the 25 at 12:00 until the 25 at 19:00 UTC


251102Z 2512/2519 22006KT 9999 BKN030
TEMPO 2517/2519 SHRA SCT020CB
No reported NOTAMs for that airfield.



MET'MAP, your aeronautical weather chart ! - Copyright ORBIFLY December 2007 - Disclaimer

ORBIFLY MET'MAP TEAM :

Programming & Development : Alexandra Zaïnal
Concept & Development : Baudouin d'Aumeries
Co-Development & Prog : Marc-Olivier Méhu
Technical & hardware support : Manuel Goepfert

Contact : metmap@orbifly.com




SOURCES & CREDITS :

   NOAA